This demonstration page uses our WeatherBlox Daily Observations layout. Learn more.

Left ArrowRight Arrow

39.29038, -76.61219

Hourly Observations for June 28, 2022

Temp ( °F °C ) Dew Point ( °F °C ) Humidity (%) Winds ( mph kmh ) Pressure ( in mb ) Visibility ( mi km ) Precip ( " mm )
12:54 am 00:54 Clear 71 21.7 50 10 47 47 NNW 8 13 30.06 1018 10 16 0.00 0.00
1:54 am 01:54 Clear 70 21.1 47 8.3 44 44 NNW 7 11 30.08 1019 10 16 0.00 0.00
2:54 am 02:54 Mostly Clear 66 18.9 47 8.3 50 50 NW 3 6 30.09 1019 10 16 0.00 0.00
3:54 am 03:54 Clear 65 18.3 47 8.3 52 52 Calm 30.10 1019 10 16 0.00 0.00
4:54 am 04:54 Mostly Clear 61 16.1 49 9.4 65 65 WNW 3 6 30.12 1020 10 16 0.00 0.00
5:54 am 05:54 Mostly Sunny 56 13.3 50 10 81 81 W 3 6 30.14 1021 10 16 0.00 0.00
6:54 am 06:54 Mostly Sunny 63 17.2 49 9.4 60 60 VRB 5 7 30.15 1021 10 16 0.00 0.00
7:54 am 07:54 Mostly Sunny 69 20.6 52 11.1 55 55 NW 3 6 30.17 1022 10 16 0.00 0.00
8:54 am 08:54 Mostly Sunny 74 23.3 50 10 43 43 NW 10 17 30.19 1022 10 16 0.00 0.00
9:54 am 09:54 Mostly Sunny 75 23.9 45 7.2 34 34 NNW 9 15 30.19 1022 10 16 0.00 0.00
10:54 am 10:54 Partly Cloudy 77 25 46 7.8 33 33 NW 14 22 30.19 1022 10 16 0.00 0.00
11:09 am 11:09 Partly Cloudy 78 25.6 47 8.3 33 33 N 7 11 30.19 1022 10 16 0.00 0.00
11:54 am 11:54 Mostly Cloudy 79 26.1 47 8.3 32 32 NNW 12 19 30.19 1023 10 16 0.00 0.00
12:54 pm 12:54 Mostly Cloudy 80 26.7 47 8.3 31 31 NNW 7 11 30.19 1022 10 16 0.00 0.00
1:54 pm 13:54 Mostly Cloudy 81 27.2 48 8.9 32 32 VRB 7 11 30.19 1022 10 16 0.00 0.00
2:54 pm 14:54 Mostly Cloudy 82 27.8 49 9.4 32 32 W 12 19 30.17 1022 10 16 0.00 0.00
3:54 pm 15:54 Mostly Cloudy 82 27.8 49 9.4 32 32 VRB 6 9 30.16 1022 10 16 0.00 0.00
4:54 pm 16:54 Mostly Cloudy 82 27.8 50 10 33 33 WNW 8 13 30.16 1021 10 16 0.00 0.00
5:54 pm 17:54 Mostly Cloudy 82 27.8 52 11.1 35 35 N 8 13 30.15 1021 10 16 0.00 0.00
6:54 pm 18:54 Mostly Cloudy 78 25.6 51 10.6 39 39 NNW 6 9 30.16 1021 10 16 0.00 0.00
7:54 pm 19:54 Mostly Cloudy 77 25 51 10.6 40 40 WNW 5 7 30.17 1022 10 16 0.00 0.00
8:54 pm 20:54 Mostly Cloudy 73 22.8 54 12.2 51 51 SSE 7 11 30.18 1022 10 16 0.00 0.00
9:54 pm 21:54 Mostly Cloudy 72 22.2 54 12.2 53 53 S 5 7 30.19 1023 10 16 0.00 0.00
10:54 pm 22:54 Partly Cloudy 69 20.6 54 12.2 59 59 Calm 30.20 1023 10 16 0.00 0.00
11:54 pm 23:54 Partly Cloudy 65 18.3 56 13.3 73 73 Calm 30.21 1023 10 16 0.00 0.00

Powered by AerisWeather